sat.trackr.live / text

‹ back to catalog

JILIN-1 GAOFEN 3D30

NORAD 52447 · 2022-048E

PAYLOAD ACTIVE UNKNOWN

§ Identity

Operator
Country
PRC
Launch date
2022-05-05
Launch site
TAISC
Launch vehicle
Mass (kg)
RCS (m²)

External: N2YO · Heavens-Above · Gunter

§ Orbital elements

Epoch: 2026-05-25T04:08:08.815200Z

Period
90.83 min
Inclination
97.5643°
Eccentricity
0.0003411
Mean motion
15.85390839 rev/d
Perigee alt
312.9 km
Apogee alt
317.5 km
Semi-major
6,693.4 km
B*
9.5084e-4
RAAN
260.5959°
Arg perigee
165.6099°
Mean anomaly
194.5269°
Rev number
22,610

§ Raw data

JILIN-1 GAOFEN 3D301 52447U 22048E   26145.17232425  .00231464  00000+0  95084-3 0  99902 52447  97.5643 260.5959 0003411 165.6099 194.5269 15.85390839226107

JSON: /api/v1/satellites/52447 · /tle

For live sub-satellite position, see the globe view (requires WebGL).

§ Visibility from observer

Set your observer location to see the next 7 days of passes ≥ 10°. The values pass through the URL so the page stays shareable.

No JS? Fill the form by hand. The geolocation button needs JavaScript.